User: anonymous   Login
Location: Unspecified
(0.0000°N, 0.0000°E)
Time: 01:22:41
(UTC+00:00)
Language:

USA 112 - Orbit

View from above orbital plane
View from above orbital plane
View from above satellite
View from above satellite

Ground track
Ground track

The orbit data is extracted from the following two-line orbital elements,

1 23609U 95034A   21263.90735802 0.00000000  00000-0  00000-0 0    02
2 23609  62.9589 303.6938 7148248 272.2017  14.9974  2.00623020    07
Epoch (UTC): 20 September 2021 21:46:35
Eccentricity: 0.7148248
inclination: 62.9589°
perigee height: 1195 km
apogee height: 39159 km
right ascension of ascending node: 303.6938°
argument of perigee: 272.2017°
revolutions per day: 2.00623020
mean anomaly at epoch: 14.9974°
orbit number at epoch: 0

The dashed part of the orbit path shows where the satellite is in the earth's shadow,  

DLR